Location: Unspecified
(43.4354°N, 0.0000°E)
Time: 19:25:03
(UTC+00:00)

Transit 2A - Visible Passes

Search period start: 24 June 2019 00:00
Search period end: 04 July 2019 00:00
Orbit: 593 x 966 km, 66.7° (Epoch: 23 June)

Date Brightness Start Highest point End Pass type
(mag) Time Alt. Az. Time Alt. Az. Time Alt. Az.
24 Jun 7.6 01:02:17 17° WSW 01:06:39 36° NW 01:12:21 10° NNE visible
24 Jun 8.9 02:50:02 10° NW 02:51:48 11° NNW 02:53:32 10° N visible
24 Jun 7.1 22:48:06 34° SE 22:49:11 36° ESE 22:54:53 10° NE visible
25 Jun 7.2 00:28:33 22° WSW 00:32:22 47° NW 00:38:22 10° NNE visible
25 Jun 8.8 02:14:09 10° WNW 02:17:11 14° NNW 02:20:10 10° N visible
25 Jun 7.5 22:14:19 25° ESE 22:15:16 26° ESE 22:20:22 10° NE visible
25 Jun 6.8 23:54:44 28° SW 23:58:08 62° NW 00:04:21 10° NNE visible
26 Jun 8.7 01:38:40 10° WNW 01:42:38 17° NW 01:46:29 10° N visible
26 Jun 7.8 21:40:23 18° ESE 21:41:23 19° ESE 21:45:34 10° ENE visible
26 Jun 6.4 23:20:49 32° SW 23:23:58 83° WNW 23:30:16 10° NNE visible
27 Jun 8.5 01:03:28 10° W 01:08:08 21° NW 01:12:43 10° N visible
27 Jun 8.2 21:06:20 12° ESE 21:07:35 13° E 21:10:08 10° ENE visible
27 Jun 6.4 22:46:45 32° SSW 22:49:52 74° ESE 22:56:08 10° NE visible
28 Jun 8.2 00:28:27 10° W 00:33:43 26° NW 00:38:51 10° NNE visible
28 Jun 6.6 22:12:30 27° S 22:15:49 54° ESE 22:21:54 10° NE visible
28 Jun 7.9 23:53:38 10° WSW 23:59:21 34° NW 00:04:56 10° NNE visible
29 Jun 9.2 01:43:21 10° NW 01:44:33 11° NNW 01:45:43 10° NNW visible
29 Jun 6.9 21:38:00 20° SSE 21:41:49 39° ESE 21:47:35 10° NE visible
29 Jun 7.4 23:19:00 10° WSW 23:25:04 44° NW 23:30:58 10° NNE visible
30 Jun 9.0 01:07:12 10° NW 01:09:55 13° NNW 01:12:36 10° N visible
30 Jun 7.3 21:03:08 12° SSE 21:07:52 28° ESE 21:13:05 10° NE visible
30 Jun 7.0 22:44:32 10° SW 22:50:49 58° NW 22:56:57 10° NNE visible
01 Jul 8.9 00:31:38 10° WNW 00:35:22 16° NNW 00:39:00 10° N visible
01 Jul 7.7 20:29:33 10° SSE 20:33:59 20° ESE 20:38:23 10° ENE visible
01 Jul 6.6 22:10:15 10° SW 22:16:38 78° WNW 22:22:54 10° NNE visible
01 Jul 8.8 23:56:22 10° W 00:00:52 20° NW 00:05:15 10° N visible
02 Jul 6.4 21:36:09 10° SSW 21:42:31 79° ESE 21:48:46 10° NNE visible
02 Jul 8.5 23:21:18 10° W 23:26:25 25° NW 23:31:24 10° NNE visible
03 Jul 6.5 21:02:13 10° SSW 21:08:28 58° ESE 21:14:34 10° NE visible
03 Jul 8.1 22:46:27 10° WSW 22:52:03 32° NW 22:57:30 10° NNE visible
